Wind_Speed
110 114 117 119 122 126 129 132 134 134 136 138 142 146 148 148 148 149 150 152 155 157 158 156 154 152 152 152 151 150 149 147 145 143 142 140 138 137 137 135 134 133 132 131 130 129 128 127 127 126 125 124 123 123 122 122 123 122 122 120 120 119 119 119 118 118 117 116 115 115 115 114 114 115
110 113 115 117 118 121 125 129 132 132 133 134 137 140 143 145 146 146 147 148 151 155 158 158 156 155 155 154 154 153 152 151 150 148 146 143 142 141 140 139 137 136 135 134 133 132 131 130 129 128 127 126 125 125 125 124 124 124 124 123 122 122 122 121 121 120 120 119 118 117 117 118 118 118
107 110 112 113 114 117 121 125 128 130 131 131 133 135 137 140 142 143 143 145 148 152 155 157 158 157 157 156 156 155 155 154 153 152 150 148 146 145 144 143 141 139 137 137 136 135 134 133 132 131 130 128 127 127 127 127 127 127 127 126 125 125 124 124 124 123 122 122 121 120 120 121 121 120
104 107 108 109 110 113 117 120 123 126 128 128 129 131 133 135 136 138 139 141 144 149 153 156 157 158 157 157 157 157 157 156 156 156 155 153 151 149 147 146 144 142 140 140 139 139 138 137 135 134 133 132 130 130 129 130 130 129 129 129 128 127 127 127 126 126 125 124 124 124 123 123 123 122
101 103 104 106 108 110 114 116 119 122 125 126 127 128 129 130 131 132 133 135 139 145 151 154 157 158 158 157 157 157 157 158 158 158 158 157 156 153 151 150 148 146 145 143 143 142 141 140 139 137 136 135 134 133 132 132 132 132 132 132 131 130 130 130 129 129 128 127 127 127 126 126 126 125
98 99 100 102 105 108 111 113 115 118 121 123 125 126 126 127 127 128 129 131 134 140 147 152 155 157 158 158 157 157 157 158 158 159 159 159 159 157 156 154 152 151 149 147 146 145 144 143 142 141 139 138 137 136 135 135 135 135 135 135 134 134 133 133 132 132 131 130 130 130 130 129 129 128
94 96 97 99 102 105 107 109 111 114 117 120 121 122 123 124 125 125 126 127 130 134 140 146 151 154 156 157 157 157 157 157 157 158 158 158 159 159 158 157 156 154 152 151 149 148 147 146 145 144 142 141 141 140 139 138 138 137 137 137 137 136 136 135 135 134 133 133 133 132 132 132 131 131
90 92 94 96 98 100 103 106 108 111 114 116 118 119 120 120 121 122 123 125 127 130 134 140 145 149 152 154 155 156 156 156 155 156 156 156 157 158 158 159 158 157 155 154 152 151 151 150 149 147 146 145 144 143 142 141 140 140 140 139 139 139 138 138 137 137 136 135 135 134 134 134 133 133
85 88 90 92 94 95 98 101 105 108 110 113 115 117 118 118 118 119 121 122 124 126 130 134 139 144 147 150 151 153 154 155 154 154 154 154 155 155 156 157 158 158 157 156 154 153 153 153 152 151 150 149 147 146 145 144 144 143 143 142 142 141 141 141 140 140 139 138 137 137 136 136 136 135
79 83 86 88 90 92 94 97 101 104 107 109 112 114 116 117 118 118 119 120 121 122 124 128 132 138 142 145 147 149 150 151 152 153 153 153 153 153 153 154 154 155 155 155 155 154 154 154 154 154 153 152 151 150 149 148 148 147 147 146 145 144 144 144 144 143 142 141 140 140 139 139 138 137
75 78 81 84 87 89 91 93 96 99 102 105 108 111 113 116 117 118 118 118 118 119 121 123 126 131 135 139 142 144 145 146 148 148 149 150 151 151 151 152 152 152 153 153 153 153 153 154 154 154 154 154 153 153 152 151 151 150 150 150 149 148 148 147 147 146 145 144 143 142 142 141 140 139
70 73 77 80 83 85 88 90 92 95 98 100 104 107 110 112 114 116 116 116 116 116 117 119 121 125 129 133 137 139 140 141 141 142 144 145 147 148 149 150 151 152 152 152 151 151 150 151 152 152 153 153 153 153 153 152 152 152 152 152 151 151 151 151 150 150 149 148 147 146 144 143 142 141
65 68 71 75 78 81 83 86 88 90 93 95 98 102 105 108 110 112 114 114 114 114 114 115 116 119 123 127 130 133 135 136 136 138 140 141 143 144 146 147 148 149 150 150 150 149 149 148 149 149 150 150 151 152 152 152 152 152 152 152 151 151 152 152 152 151 150 150 149 148 147 145 144 143
61 64 66 69 72 75 78 80 83 85 87 90 93 96 99 102 105 107 109 111 112 112 113 113 113 115 118 121 124 128 130 132 134 135 137 138 139 140 142 143 143 144 146 147 147 147 147 146 146 146 147 147 147 148 149 149 150 150 150 150 150 150 150 150 150 150 150 149 149 148 147 146 146 145
59 60 62 64 67 70 72 75 77 80 82 84 87 90 92 95 98 101 103 106 108 109 110 111 112 112 114 117 120 123 126 129 131 133 134 135 136 137 138 138 139 140 141 143 144 144 144 144 144 143 143 144 144 144 145 145 145 146 146 147 147 148 147 147 147 147 147 147 147 147 146 146 146 145
57 58 59 61 63 65 67 70 72 74 76 78 81 83 85 88 90 93 96 99 102 104 106 108 108 109 111 114 117 120 123 126 128 130 131 132 133 133 133 134 135 137 138 139 140 139 139 139 139 139 139 140 140 141 141 141 141 141 142 143 144 144 144 143 143 143 143 143 143 144 144 144 144 143
55 56 57 58 60 61 63 65 67 69 71 73 75 77 79 81 84 87 89 92 95 98 100 102 104 106 108 111 114 117 120 123 125 126 127 128 129 130 130 132 133 134 135 135 135 135 134 134 134 134 134 134 135 136 137 137 138 138 138 138 139 140 140 139 139 139 139 139 140 140 141 141 141 141
53 54 55 57 58 59 61 62 64 66 67 68 70 72 73 75 78 80 83 85 88 91 94 96 99 102 105 108 110 113 115 117 119 121 122 123 125 126 126 127 129 129 129 129 129 129 129 129 130 130 130 130 131 131 132 134 135 135 135 135 135 136 136 136 135 135 135 136 136 137 137 138 138 138
50 52 53 54 56 57 58 60 61 63 64 65 66 67 69 71 73 74 76 79 82 84 87 90 94 97 100 103 105 108 109 111 113 115 118 119 120 120 120 121 122 123 124 125 125 126 126 126 127 128 127 128 128 128 128 129 131 132 132 132 133 133 133 133 132 132 132 132 132 133 133 134 134 135
47 49 50 51 53 54 55 57 58 59 60 61 62 64 66 67 69 70 72 74 75 78 81 85 89 92 94 97 99 102 104 106 108 110 112 113 114 115 116 117 119 120 121 123 123 123 123 124 125 125 125 125 125 125 125 126 127 128 129 130 130 131 131 131 131 130 130 129 130 130 130 131 131 132
44 45 46 48 49 50 52 54 55 56 57 57 58 60 62 64 66 67 69 70 71 73 76 80 83 86 88 90 93 96 99 100 102 103 105 107 109 112 113 114 116 117 119 120 121 121 121 121 122 123 122 121 122 122 122 122 123 124 125 125 127 128 128 129 129 129 129 129 129 129 129 129 130 130
41 43 44 45 47 48 50 51 51 52 53 54 56 58 60 62 64 66 68 68 69 71 73 75 77 80 82 84 86 90 93 94 96 97 99 101 104 106 109 110 112 114 116 117 118 119 119 119 120 121 120 119 119 119 119 120 120 121 121 121 122 123 125 126 127 128 128 128 128 128 129 129 129 129
39 41 42 43 44 46 47 48 47 48 49 51 53 56 58 60 62 65 67 67 67 69 70 71 73 75 76 78 80 83 86 88 90 92 94 96 98 100 102 105 106 108 110 112 114 116 117 118 119 119 118 117 116 116 116 116 117 117 117 117 118 119 120 122 124 125 126 126 127 127 128 128 128 128
36 37 39 40 41 43 45 45 45 47 48 49 52 55 56 58 61 63 63 63 63 65 66 68 69 71 73 74 76 78 81 83 85 88 90 92 94 96 98 99 100 102 104 107 110 112 113 114 115 115 114 114 113 113 113 114 114 114 115 115 116 117 118 119 120 121 122 124 124 125 126 126 127 127
32 33 35 36 37 39 41 42 44 46 47 48 52 54 55 56 57 56 56 56 57 59 62 64 67 69 71 72 74 76 78 80 82 85 86 87 89 91 92 93 95 97 100 102 105 106 106 108 109 109 110 110 110 111 112 112 113 114 114 115 115 116 116 117 118 118 119 120 121 122 122 123 124 125
28 29 31 32 34 36 37 39 41 43 45 47 50 52 52 52 52 51 51 52 53 55 57 60 63 66 68 70 72 73 75 76 78 80 82 82 84 85 86 87 89 91 94 97 99 99 100 101 103 104 104 105 107 108 109 111 112 113 114 115 115 115 115 115 115 116 116 116 117 117 118 119 120 121
25 26 27 29 31 32 33 35 37 39 41 44 46 47 47 47 48 48 50 51 52 53 54 55 57 59 61 63 65 68 70 72 73 75 76 77 79 80 81 82 83 86 90 92 93 93 94 95 97 98 99 100 102 103 105 106 108 109 111 112 112 113 113 113 113 113 113 113 113 113 113 114 115 116
24 24 26 27 28 29 30 31 33 35 37 39 41 42 43 44 45 47 48 50 51 51 51 52 53 55 56 58 60 63 65 66 68 70 71 73 75 77 78 79 81 84 86 88 88 89 90 90 91 93 94 95 96 98 99 101 102 104 105 106 107 108 109 110 110 110 109 109 108 108 109 109 110 111
22 22 24 25 26 27 28 29 30 31 33 35 37 39 40 42 43 44 45 47 48 49 50 51 53 54 56 57 59 60 61 62 64 66 68 70 72 73 75 77 78 80 82 84 84 85 86 87 88 90 91 92 93 94 95 96 97 98 99 100 101 102 103 104 105 105 105 104 104 103 103 104 105 106
19 20 21 23 24 25 26 26 27 29 30 32 34 36 37 39 40 41 42 43 45 47 48 49 50 52 53 54 55 57 58 60 62 64 65 67 68 69 71 72 73 75 77 79 80 82 83 84 86 87 88 88 89 91 92 93 93 94 95 95 96 96 97 97 99 100 100 101 101 100 100 100 100 101
15 16 18 20 21 23 23 24 25 26 28 29 31 33 34 36 37 38 40 41 42 44 45 47 48 49 50 51 52 54 55 57 59 61 63 64 65 66 67 68 69 71 73 74 76 77 78 80 81 82 83 84 85 86 87 88 89 90 91 92 92 92 92 93 94 95 96 97 97 98 99 99 98 98
11 12 14 16 18 19 21 22 23 24 25 27 28 30 31 33 34 36 37 39 40 42 43 44 46 47 48 49 50 51 53 54 56 58 59 61 62 63 65 66 67 69 70 71 72 73 74 75 76 78 79 80 81 82 83 84 86 88 88 88 88 88 88 90 91 92 93 93 94 96 98 98 98 98
9 10 12 13 14 16 17 18 19 20 22 23 25 26 28 30 31 33 34 36 38 39 40 42 43 44 46 47 48 50 51 52 54 55 57 58 60 61 62 64 66 67 68 69 70 70 71 72 73 74 75 76 77 78 80 81 83 84 84 83 84 85 86 87 88 89 89 90 92 94 96 97 97 97
8 9 10 11 12 13 14 15 16 17 18 20 21 23 24 26 27 29 31 32 34 35 37 39 40 42 43 45 46 48 49 50 52 53 54 56 57 59 60 62 63 65 67 68 69 70 70 71 72 73 73 74 74 75 77 78 80 80 79 79 80 82 83 83 83 84 85 87 89 91 92 93 94 94
7 7 8 9 10 11 12 12 13 14 15 17 18 19 21 22 24 25 27 28 30 31 33 35 36 38 40 42 43 45 47 48 49 51 52 53 54 56 57 59 61 62 64 66 67 68 69 70 71 72 72 73 74 74 75 76 77 77 77 77 78 79 79 79 80 82 83 85 86 87 87 88 90 90
4 5 5 6 7 8 9 10 11 12 13 14 15 17 18 19 21 22 23 24 26 27 29 30 32 34 35 37 39 41 42 44 46 47 49 50 52 53 55 56 58 59 61 63 64 66 67 68 69 70 71 72 73 73 74 74 75 75 76 77 77 77 77 77 78 80 81 82 82 83 84 85 86 86
3 3 4 4 5 6 7 8 9 10 11 12 13 14 15 17 18 19 20 21 23 24 25 27 28 30 31 33 34 36 38 39 41 43 44 46 48 50 51 53 54 56 57 59 61 62 64 65 66 67 68 69 70 71 71 71 72 73 74 74 74 74 75 75 77 79 79 79 79 80 82 83 84 84
4 4 5 5 5 5 5 6 6 7 7 8 9 11 12 13 15 16 17 19 20 21 23 24 26 27 29 30 31 33 34 36 37 39 41 42 44 46 48 49 51 52 54 56 57 59 60 62 63 64 65 66 67 67 68 69 70 70 70 71 71 71 72 74 75 76 77 77 78 79 80 81 83 84
6 6 6 6 6 5 5 5 5 5 6 6 7 8 9 10 11 13 14 15 16 18 19 21 23 25 26 28 29 30 32 33 35 36 38 39 41 43 44 46 48 49 50 52 54 55 56 58 59 61 62 63 63 64 65 66 66 66 67 68 68 69 70 71 73 74 74 75 76 77 78 80 82 83
7 7 7 7 7 7 7 7 7 7 7 7 7 7 7 8 9 10 11 12 13 14 16 17 19 21 23 24 26 27 29 31 32 34 36 37 39 40 42 43 45 46 48 49 50 52 53 55 56 57 58 59 60 61 62 63 64 64 64 65 66 67 68 69 70 71 72 72 73 74 77 79 80 81
7 7 8 8 8 8 8 9 9 9 9 9 9 9 9 9 10 10 10 11 12 13 14 15 17 18 20 21 23 25 26 28 30 31 33 35 37 38 40 41 43 44 45 46 48 49 51 52 54 55 56 57 59 60 60 61 62 62 62 63 65 65 65 66 68 69 69 70 71 73 75 77 76 77
6 6 6 7 7 7 8 8 8 8 9 9 9 10 10 11 11 12 12 13 14 14 15 16 17 18 19 20 22 23 24 26 28 29 31 33 34 36 37 39 41 42 43 44 46 48 49 51 52 53 54 56 57 58 59 60 60 61 62 63 64 64 65 65 66 66 67 68 69 71 73 74 73 74
5 6 6 6 7 7 7 7 8 8 8 9 9 10 11 11 12 13 14 14 15 16 17 18 19 20 21 21 23 24 25 26 28 29 30 31 33 34 35 37 38 40 41 42 44 46 47 49 50 51 53 55 56 57 58 59 60 60 61 62 63 64 65 65 65 65 67 68 69 69 71 71 71 72
6 6 6 7 7 7 8 8 8 9 9 9 10 10 11 12 13 14 14 15 16 17 18 19 20 21 22 23 24 25 26 27 28 29 31 32 33 34 35 36 38 38 39 41 43 44 46 47 49 50 52 52 53 55 57 58 58 59 60 61 62 63 64 64 64 65 66 68 68 69 69 69 70 72
7 7 8 8 8 8 9 9 9 10 10 11 11 12 12 13 14 15 15 16 17 18 19 20 21 21 22 24 25 25 26 27 28 30 31 32 33 35 36 37 38 39 39 40 42 44 45 47 48 50 50 50 52 54 55 56 57 58 59 59 60 61 62 62 64 65 65 66 67 67 67 68 69 70
Wind_Direction
239 238 238 237 237 237 238 239 239 239 238 238 238 238 238 238 237 236 236 237 238 240 241 240 240 239 240 240 241 241 242 242 242 241 241 242 242 242 242 242 243 243 243 244 244 244 244 244 244 244 244 244 245 245 246 246 247 248 248 248 248 249 249 249 250 250 250 250 251 251 252 252 252 252
238 238 237 237 237 236 237 238 239 239 238 238 238 238 238 239 238 237 236 236 237 239 241 241 241 240 240 240 241 241 242 242 243 242 242 242 242 242 242 242 242 242 243 244 244 244 244 244 244 245 245 245 245 246 246 247 247 248 248 248 248 249 249 250 250 250 250 251 251 251 251 252 252 252
239 238 238 237 237 237 237 237 238 239 239 238 238 238 238 238 239 238 237 236 236 238 240 241 242 241 240 240 241 241 242 242 243 243 243 243 242 242 242 243 243 243 243 244 244 244 245 245 245 245 245 245 245 246 246 247 247 248 248 249 249 249 249 250 250 250 251 251 251 251 251 252 252 252
239 239 239 239 238 237 237 237 237 238 239 239 239 238 238 238 238 238 237 236 236 237 238 240 242 242 242 241 241 241 241 242 242 243 244 244 243 243 243 243 243 243 243 243 244 245 245 245 245 245 245 245 245 246 246 247 247 248 248 249 249 249 249 250 250 251 251 251 251 252 252 252 252 253
238 238 238 238 238 238 237 237 237 238 239 239 239 239 239 239 238 238 238 237 236 236 237 239 240 242 242 242 242 241 241 242 242 243 243 244 244 244 243 243 243 243 243 243 243 244 245 245 245 245 245 246 246 246 246 246 247 248 248 249 249 249 250 250 250 251 251 251 252 252 252 252 252 253
238 238 238 237 237 237 237 237 237 237 238 239 239 239 239 239 239 238 238 237 236 236 237 238 239 240 241 242 243 242 242 242 242 242 243 243 244 245 245 244 244 244 243 243 244 244 244 245 245 246 246 246 246 246 246 246 247 247 248 248 249 249 250 250 250 251 251 251 252 252 252 252 253 253
237 238 238 237 236 236 237 237 237 238 238 239 239 240 239 239 239 239 238 238 237 237 237 238 239 240 241 242 243 243 243 242 242 243 243 243 244 245 245 245 245 245 244 244 244 245 245 245 246 246 246 246 247 247 247 247 247 248 248 248 249 249 250 250 250 250 251 251 251 252 252 252 253 253
237 238 238 237 237 236 236 236 237 237 238 238 239 240 240 240 240 239 239 238 238 237 237 238 239 240 241 241 242 243 244 244 243 243 244 244 244 244 245 245 246 246 245 245 245 245 245 246 246 246 246 247 247 247 247 248 248 248 249 249 249 250 250 250 251 251 251 251 252 252 252 253 253 253
238 238 238 238 238 237 236 236 236 237 237 238 239 239 240 241 240 240 239 239 238 238 237 238 238 240 241 242 242 243 244 244 245 245 245 245 245 245 245 245 246 246 246 246 245 245 246 246 246 247 247 247 247 247 248 248 248 249 249 249 250 250 251 251 251 251 252 252 252 252 253 253 253 254
237 238 238 238 238 238 237 236 236 236 237 237 238 238 239 240 241 241 240 240 239 239 238 238 238 239 240 241 242 243 243 244 245 245 245 246 246 246 246 246 246 247 247 247 246 246 246 246 246 247 247 247 248 248 248 248 248 249 249 250 250 250 251 251 252 252 252 252 252 253 253 253 254 254
237 237 237 238 238 238 237 237 236 236 236 237 237 238 238 239 240 241 241 240 240 239 239 239 239 239 240 241 242 243 244 244 245 245 246 246 247 247 247 247 248 248 248 248 247 247 246 246 247 247 247 248 248 248 248 248 249 249 249 250 250 251 251 252 252 252 253 253 253 253 253 254 254 254
237 237 237 237 238 238 237 237 237 237 236 237 237 237 238 239 239 240 241 241 241 240 240 239 240 240 240 241 242 243 244 245 245 246 246 247 247 248 248 248 248 248 249 249 249 248 248 247 247 247 248 248 248 249 249 249 249 249 249 250 250 251 251 252 252 253 253 254 254 254 254 255 255 255
238 238 238 238 238 238 238 238 238 237 237 237 237 237 238 238 239 240 240 241 242 241 241 240 240 240 240 241 242 243 244 245 246 246 246 247 247 247 248 248 248 249 249 249 249 249 249 249 249 248 248 248 249 249 249 249 250 250 250 250 251 251 251 252 252 253 253 254 254 255 255 256 256 256
239 239 239 239 239 239 240 240 239 239 238 238 238 238 238 238 239 239 240 241 241 242 242 242 241 241 241 241 242 243 244 244 245 245 246 246 247 247 248 248 248 249 249 249 250 250 250 250 250 250 249 249 249 249 249 250 250 250 251 251 251 251 252 252 252 253 254 254 255 255 256 256 257 257
239 239 239 239 239 240 240 240 240 240 240 239 239 239 239 239 239 239 240 240 241 241 242 242 242 242 241 242 242 243 243 244 244 245 245 246 246 247 247 248 248 249 249 249 250 250 250 250 250 250 250 250 251 251 251 251 251 251 251 251 252 252 252 252 253 253 254 255 255 256 256 257 257 257
239 239 239 239 239 240 240 241 241 241 241 241 240 240 240 240 240 240 240 240 241 241 241 242 242 242 242 242 242 242 242 243 243 244 244 245 245 246 247 248 248 249 249 249 249 250 250 250 250 250 250 250 251 251 252 252 252 252 252 252 253 253 253 253 253 254 254 255 255 256 256 256 257 257
239 239 239 239 239 239 239 240 241 241 241 241 241 241 241 241 240 240 241 241 241 241 242 242 242 242 242 242 242 241 241 242 243 243 244 244 245 245 246 247 247 248 248 249 249 250 250 250 250 250 250 250 251 251 252 252 253 253 253 253 253 254 254 254 254 254 254 255 255 255 256 256 257 257
240 240 239 239 239 239 239 239 240 240 241 241 241 242 242 241 241 240 240 241 241 241 241 242 242 242 242 242 242 242 242 242 242 243 244 244 244 245 245 246 247 247 248 249 249 250 250 250 251 251 251 251 250 250 251 251 252 253 253 253 254 254 254 255 255 255 255 255 255 255 256 256 256 257
243 242 242 241 240 240 240 240 240 240 240 240 240 241 241 241 241 241 240 240 240 240 241 241 241 242 242 242 243 243 243 243 243 243 244 244 245 246 246 246 247 248 249 250 250 250 251 251 251 251 251 251 251 250 250 251 251 252 252 253 253 254 254 255 255 255 255 255 255 255 256 256 256 256
246 245 245 244 244 243 242 242 241 241 241 241 241 241 241 241 241 241 240 240 240 240 240 240 241 241 242 242 243 244 244 244 244 244 244 245 246 246 247 247 248 248 249 249 250 250 250 250 251 251 251 251 251 250 250 250 250 251 251 252 253 253 254 254 255 255 255 255 255 255 255 255 255 255
247 247 247 247 246 246 245 243 242 242 241 241 241 241 241 241 241 241 240 240 239 239 239 239 240 240 241 242 243 244 244 245 245 245 245 245 245 246 246 246 247 247 248 248 249 249 250 250 250 251 250 250 250 250 250 250 250 250 250 250 251 252 252 253 254 254 254 254 254 254 254 254 254 254
245 245 245 245 245 245 245 245 244 243 243 242 241 240 239 240 240 240 239 239 238 238 238 238 239 239 240 240 241 242 243 244 245 245 245 245 245 245 245 246 246 246 247 248 248 249 249 250 250 250 250 250 250 250 250 250 250 250 249 249 249 250 250 251 252 252 253 253 253 253 253 253 253 253
243 243 243 243 244 244 245 245 244 244 243 243 242 241 239 239 239 239 238 237 237 238 239 239 239 239 239 239 240 241 242 243 243 244 244 244 245 245 245 246 246 246 247 248 248 248 249 249 249 250 250 250 250 251 251 251 251 251 251 250 250 250 250 250 251 251 252 252 252 253 253 253 253 253
244 243 243 243 243 243 244 244 243 243 242 242 242 242 241 240 239 238 238 238 238 238 239 240 241 241 240 240 239 239 240 241 242 242 242 243 243 244 244 245 245 246 247 247 247 248 248 249 249 250 251 251 252 252 252 252 252 252 252 252 251 251 251 250 250 251 251 251 252 252 252 253 253 253
246 246 245 243 242 242 242 241 241 241 241 241 242 242 242 243 243 243 242 241 240 239 239 239 239 240 241 241 240 240 239 239 240 241 241 241 242 243 243 244 244 245 246 247 247 248 248 249 250 250 251 251 252 252 252 252 253 253 253 252 252 252 251 251 251 251 251 251 251 251 252 252 253 253
249 248 247 246 243 242 241 240 239 239 239 240 242 243 243 245 246 247 246 244 242 241 239 239 238 239 240 241 241 241 241 241 241 241 242 242 242 243 244 244 244 245 246 246 247 248 248 249 249 250 250 250 250 251 251 251 252 252 252 253 253 253 253 253 253 253 252 252 252 252 252 252 253 253
253 252 250 249 247 245 243 240 239 239 239 240 241 244 244 244 244 244 244 244 244 242 241 241 241 241 241 241 242 243 243 243 243 244 244 244 244 244 244 244 244 244 245 246 246 247 247 248 249 249 249 250 250 250 250 250 250 251 251 252 252 253 253 253 253 253 253 253 253 253 253 253 253 253
256 254 252 251 250 248 246 243 240 240 239 239 240 241 242 241 241 240 240 241 242 242 241 241 241 241 240 240 241 241 242 242 243 243 243 243 243 243 243 243 243 243 244 245 245 246 247 247 247 248 249 249 249 249 249 249 250 250 250 250 251 252 252 253 253 254 254 254 254 254 254 254 254 254
257 255 253 252 251 249 248 245 243 240 239 239 239 239 239 240 239 239 238 239 240 240 240 239 239 238 238 238 239 240 240 241 242 242 242 242 242 242 242 242 243 243 244 244 245 245 246 246 246 247 247 247 248 248 249 249 249 249 250 250 250 251 252 252 253 254 255 255 255 255 254 254 254 254
259 257 254 253 252 250 249 247 245 242 240 238 238 238 238 238 239 239 239 238 239 240 240 240 240 240 240 240 240 240 240 241 242 242 243 243 243 243 243 243 243 243 244 244 245 245 246 246 246 246 247 247 247 248 248 249 249 250 250 250 250 251 251 252 253 253 254 254 255 256 256 255 254 253
265 263 259 256 253 251 250 248 246 244 242 240 239 238 238 238 238 238 238 238 238 238 239 239 239 240 240 240 240 240 240 240 241 242 243 244 244 244 244 244 244 244 244 244 244 244 245 246 246 247 247 247 248 248 249 249 250 250 250 250 250 251 251 251 252 252 253 253 254 255 255 256 255 254
272 271 268 263 258 254 251 249 247 245 243 241 240 239 239 239 239 239 238 238 238 238 238 238 239 239 240 240 240 240 240 240 240 241 242 242 243 244 245 245 246 246 245 245 244 244 244 244 245 245 246 246 247 247 247 248 248 248 249 249 249 249 250 250 250 250 251 251 252 253 253 254 254 254
276 277 276 272 266 260 256 252 250 248 246 244 243 241 240 240 239 239 238 238 238 238 238 238 238 239 239 240 240 241 241 241 241 241 241 242 242 243 243 244 245 246 247 247 247 247 246 246 246 246 245 246 246 246 247 247 248 248 248 249 249 249 249 249 249 249 250 250 250 251 252 252 253 254
281 278 278 277 274 269 264 259 256 253 252 250 248 246 244 243 241 241 240 239 239 238 238 238 238 238 238 238 239 240 240 241 241 241 242 242 242 242 243 243 244 245 246 247 248 248 249 249 249 249 249 248 248 248 248 249 250 250 251 251 251 251 250 250 251 251 251 251 251 251 252 253 253 254
287 283 280 278 276 273 269 266 262 259 257 254 252 250 248 246 244 243 242 242 241 240 240 239 239 239 238 238 239 239 239 240 241 241 242 242 242 242 242 243 243 244 245 246 247 248 249 250 250 250 251 251 251 250 250 251 251 252 252 252 252 253 253 253 253 253 253 252 253 253 254 254 255 256
293 289 284 280 277 274 270 265 261 258 255 253 252 250 248 247 246 244 243 243 242 241 241 240 240 240 240 240 240 240 240 241 241 242 242 243 243 243 243 243 243 244 244 245 246 247 248 249 250 250 251 251 251 252 252 253 253 253 253 253 253 253 254 254 253 253 253 254 254 255 255 255 256 256
322 315 308 300 291 282 275 268 263 258 253 250 248 246 245 245 244 244 244 244 243 242 242 242 241 241 241 241 241 241 241 241 242 242 243 243 244 244 245 245 245 245 245 246 246 247 248 248 249 250 250 251 251 252 252 253 253 253 253 253 253 253 253 253 253 253 254 254 254 255 255 255 255 255
352 345 339 332 324 314 305 293 281 273 265 259 253 249 247 244 244 243 243 243 243 244 244 244 244 244 243 243 242 242 243 243 243 243 243 244 244 244 245 245 246 246 246 247 247 248 248 249 249 250 250 250 251 251 251 251 251 252 252 252 252 252 252 252 252 253 253 253 254 254 254 255 255 255
351 347 343 339 334 330 324 315 305 296 286 277 268 260 255 251 249 247 246 246 245 245 245 245 246 246 246 245 245 245 245 245 245 245 245 245 245 245 245 245 246 246 246 246 247 247 248 248 249 249 250 251 251 251 251 251 251 251 251 252 251 251 251 251 251 252 252 253 253 253 254 254 255 255
339 336 334 332 329 328 323 319 316 311 305 299 293 286 279 274 269 264 261 257 255 253 252 251 249 249 249 248 249 248 248 248 248 247 247 247 247 247 246 246 246 246 246 246 247 247 247 248 248 249 249 250 250 251 251 251 251 252 252 252 252 251 251 251 251 251 252 252 252 253 253 253 254 256
325 321 320 318 318 317 315 313 311 309 307 305 302 299 296 292 287 282 278 273 270 266 263 260 258 256 255 254 253 253 252 252 251 250 250 249 249 248 248 248 248 248 248 248 248 248 248 248 248 249 249 250 250 250 250 251 251 251 251 251 251 251 251 251 251 251 251 251 252 252 252 253 254 255
311 306 306 306 306 306 304 304 302 300 299 297 295 293 291 287 284 282 278 276 274 272 269 267 265 263 261 260 259 258 256 256 254 253 252 252 251 250 250 249 249 249 249 249 249 249 249 249 249 249 249 250 250 250 251 251 251 251 251 251 251 252 252 251 251 252 252 251 251 251 252 253 253 254
306 306 306 307 306 305 305 303 301 299 296 294 291 289 285 283 280 279 277 275 273 272 270 269 268 266 265 263 262 260 259 258 257 256 255 254 253 252 252 251 250 250 250 250 250 250 250 250 250 249 249 249 250 250 251 251 251 251 251 251 252 252 252 252 252 252 252 252 252 251 252 253 253 253
319 320 322 321 320 318 316 313 310 307 303 299 294 290 286 284 281 279 277 275 273 272 271 269 268 267 266 265 263 262 261 261 260 260 259 258 257 256 255 254 254 253 252 252 252 252 251 251 251 250 250 250 250 251 251 252 252 251 251 251 251 252 253 253 253 252 252 252 253 253 252 252 252 253
327 327 327 326 323 319 315 311 308 303 299 295 291 286 283 281 279 277 275 274 272 271 270 269 268 267 266 266 265 265 264 264 263 263 262 262 261 261 260 259 258 257 256 256 256 255 255 254 253 252 252 252 252 252 253 253 253 252 252 252 252 252 252 253 254 254 254 253 253 253 253 253 252 252
Height
10044 10049 10054 10061 10069 10077 10082 10086 10092 10102 10112 10120 10127 10133 10140 10151 10162 10173 10183 10192 10198 10198 10200 10211 10223 10230 10234 10239 10244 10249 10256 10263 10269 10276 10284 10292 10298 10302 10307 10313 10320 10327 10333 10338 10344 10349 10355 10360 10364 10369 10376 10382 10388 10392 10397 10400 10403 10406 10412 10419 10425 10429 10432 10436 10442 10446 10451 10457 10461 10465 10469 10473 10476 10478
10025 10031 10037 10045 10054 10061 10066 10071 10076 10084 10093 10103 10111 10118 10124 10133 10144 10156 10170 10182 10187 10184 10183 10192 10203 10211 10218 10223 10228 10234 10240 10246 10251 10258 10267 10276 10283 10287 10291 10297 10304 10312 10319 10324 10329 10335 10340 10346 10351 10356 10363 10370 10376 10380 10384 10388 10391 10394 10398 10404 10411 10415 10419 10423 10427 10432 10437 10442 10448 10453 10456 10458 10461 10463
10010 10015 10022 10031 10040 10046 10051 10056 10061 10067 10075 10085 10094 10101 10108 10116 10126 10138 10153 10167 10174 10173 10172 10175 10181 10190 10198 10205 10212 10219 10225 10231 10235 10240 10248 10258 10266 10272 10276 10281 10289 10298 10306 10311 10315 10320 10326 10331 10337 10343 10349 10355 10362 10368 10371 10374 10377 10381 10384 10389 10395 10401 10405 10409 10413 10418 10423 10428 10434 10438 10441 10444 10446 10450
9997 10002 10009 10018 10027 10033 10037 10042 10048 10053 10060 10069 10077 10084 10092 10100 10109 10120 10134 10150 10162 10163 10160 10161 10163 10168 10177 10186 10196 10204 10209 10214 10219 10224 10229 10237 10245 10254 10260 10267 10274 10283 10291 10297 10301 10305 10310 10315 10321 10328 10334 10340 10347 10353 10357 10360 10363 10367 10370 10375 10380 10386 10391 10395 10399 10404 10408 10414 10419 10422 10426 10430 10433 10437
9982 9989 9997 10006 10013 10019 10023 10029 10036 10041 10046 10053 10061 10068 10076 10084 10094 10105 10117 10132 10146 10148 10146 10147 10148 10150 10156 10165 10176 10186 10191 10196 10202 10208 10213 10217 10224 10234 10243 10249 10256 10265 10273 10280 10285 10290 10294 10299 10305 10312 10319 10324 10330 10336 10342 10347 10350 10353 10356 10360 10365 10371 10376 10380 10384 10389 10394 10400 10404 10407 10411 10415 10419 10424
9970 9976 9985 9992 9998 10004 10010 10017 10023 10028 10033 10038 10044 10052 10060 10069 10079 10090 10101 10113 10125 10130 10129 10130 10133 10135 10138 10145 10155 10164 10172 10178 10183 10189 10195 10201 10206 10213 10222 10230 10238 10246 10254 10262 10269 10274 10279 10284 10290 10297 10303 10309 10314 10320 10326 10332 10336 10339 10342 10346 10350 10355 10360 10365 10369 10374 10379 10385 10389 10392 10396 10400 10404 10408
9960 9965 9972 9978 9984 9990 9997 10004 10010 10015 10020 10025 10031 10037 10045 10054 10063 10074 10084 10095 10106 10113 10115 10115 10118 10121 10125 10130 10136 10142 10150 10157 10164 10171 10179 10185 10191 10197 10203 10210 10218 10227 10236 10245 10253 10258 10264 10269 10275 10282 10288 10293 10298 10304 10310 10316 10320 10324 10327 10331 10335 10339 10344 10349 10354 10359 10364 10369 10373 10377 10380 10384 10388 10392
9950 9954 9959 9965 9971 9978 9986 9992 9997 10002 10008 10013 10019 10025 10031 10040 10050 10059 10067 10077 10087 10096 10100 10102 10105 10107 10111 10116 10121 10125 10130 10138 10147 10155 10162 10168 10175 10181 10186 10192 10199 10207 10216 10227 10236 10243 10248 10253 10259 10265 10272 10277 10282 10288 10294 10299 10304 10308 10312 10316 10320 10324 10328 10333 10338 10343 10348 10352 10357 10361 10365 10369 10373 10377
9941 9945 9949 9954 9961 9968 9975 9980 9984 9990 9995 10001 10007 10013 10019 10026 10035 10042 10050 10058 10068 10077 10083 10088 10092 10094 10096 10101 10106 10111 10117 10123 10131 10138 10145 10152 10159 10164 10170 10176 10182 10189 10197 10207 10217 10226 10232 10236 10242 10248 10254 10260 10266 10272 10278 10283 10287 10291 10296 10300 10305 10309 10313 10316 10321 10325 10330 10335 10341 10346 10350 10353 10357 10361
9931 9936 9940 9944 9950 9957 9963 9968 9973 9978 9983 9989 9995 10002 10007 10013 10019 10025 10033 10042 10051 10060 10068 10074 10079 10081 10083 10086 10091 10097 10102 10108 10114 10121 10127 10134 10142 10148 10155 10161 10167 10172 10179 10187 10197 10205 10212 10218 10224 10229 10235 10241 10248 10254 10259 10265 10270 10274 10278 10283 10287 10292 10296 10299 10302 10307 10312 10318 10324 10329 10333 10337 10341 10346
9922 9926 9930 9935 9940 9946 9951 9956 9961 9966 9971 9977 9982 9988 9993 9998 10003 10009 10017 10026 10036 10045 10053 10059 10065 10070 10072 10074 10077 10082 10087 10093 10099 10106 10113 10121 10129 10136 10141 10146 10151 10156 10161 10167 10175 10184 10192 10199 10205 10211 10216 10222 10229 10235 10241 10246 10252 10256 10260 10265 10271 10276 10280 10282 10285 10289 10295 10300 10306 10311 10316 10321 10326 10331
9912 9916 9920 9925 9929 9934 9939 9944 9950 9955 9961 9966 9971 9976 9981 9986 9991 9997 10004 10011 10019 10029 10037 10044 10051 10057 10060 10063 10066 10070 10073 10079 10089 10097 10103 10109 10114 10119 10123 10128 10132 10136 10141 10147 10155 10164 10173 10181 10188 10194 10199 10205 10211 10217 10222 10228 10233 10237 10242 10248 10254 10259 10262 10264 10268 10272 10278 10282 10287 10293 10299 10305 10310 10315
9904 9908 9912 9916 9920 9924 9929 9934 9939 9945 9950 9955 9960 9965 9969 9974 9980 9986 9992 9998 10006 10014 10022 10029 10037 10043 10047 10051 10056 10059 10062 10070 10079 10085 10087 10091 10096 10100 10103 10107 10112 10118 10124 10130 10136 10144 10153 10161 10169 10175 10181 10188 10194 10198 10203 10209 10215 10219 10224 10229 10236 10240 10244 10247 10251 10256 10261 10266 10271 10276 10282 10288 10294 10299
9896 9900 9904 9908 9912 9916 9920 9925 9930 9936 9941 9946 9950 9954 9959 9964 9969 9975 9981 9987 9994 10001 10008 10015 10022 10029 10034 10040 10044 10047 10051 10056 10061 10064 10068 10074 10078 10082 10085 10091 10097 10103 10107 10112 10118 10125 10132 10140 10148 10156 10163 10169 10175 10179 10186 10192 10197 10202 10207 10212 10217 10222 10227 10231 10236 10241 10246 10250 10255 10261 10267 10273 10278 10282
9889 9892 9896 9900 9904 9908 9911 9916 9920 9925 9930 9936 9940 9944 9949 9955 9960 9965 9970 9976 9982 9988 9994 10000 10007 10014 10022 10027 10030 10033 10036 10039 10041 10046 10052 10056 10060 10064 10070 10077 10083 10087 10090 10094 10099 10106 10113 10120 10128 10137 10145 10151 10156 10162 10168 10174 10180 10185 10191 10195 10199 10203 10209 10215 10220 10226 10231 10236 10241 10246 10251 10256 10260 10264
9882 9885 9889 9892 9896 9900 9903 9907 9911 9916 9921 9925 9930 9935 9940 9945 9951 9955 9960 9966 9971 9976 9981 9987 9993 10001 10008 10011 10014 10017 10020 10022 10024 10029 10034 10038 10044 10051 10057 10063 10068 10070 10072 10075 10081 10088 10096 10103 10110 10119 10128 10135 10140 10146 10151 10156 10162 10168 10174 10179 10182 10186 10192 10200 10206 10211 10217 10222 10226 10230 10234 10238 10243 10247
9876 9879 9882 9885 9888 9892 9895 9899 9903 9907 9911 9916 9920 9925 9931 9936 9941 9945 9950 9955 9960 9965 9970 9975 9982 9988 9991 9993 9997 10000 10002 10004 10006 10011 10018 10024 10030 10037 10043 10047 10050 10052 10054 10059 10066 10074 10081 10088 10095 10103 10112 10119 10125 10131 10136 10140 10144 10150 10156 10162 10167 10170 10175 10182 10190 10195 10201 10206 10210 10214 10218 10221 10226 10230
9870 9872 9875 9878 9881 9884 9888 9891 9894 9898 9902 9906 9911 9916 9920 9925 9929 9934 9940 9944 9949 9954 9959 9964 9969 9972 9974 9978 9981 9983 9986 9991 9995 10001 10006 10010 10014 10020 10027 10031 10034 10038 10044 10049 10055 10062 10069 10075 10081 10088 10095 10101 10107 10114 10120 10124 10128 10133 10139 10145 10150 10154 10158 10164 10171 10178 10183 10188 10193 10197 10201 10205 10209 10213
9864 9866 9869 9872 9874 9877 9880 9883 9886 9890 9893 9898 9902 9906 9910 9913 9918 9924 9929 9933 9937 9943 9948 9952 9954 9956 9959 9964 9967 9969 9974 9981 9987 9991 9994 9997 10001 10008 10016 10021 10025 10031 10036 10039 10043 10049 10056 10061 10064 10070 10076 10082 10088 10095 10102 10107 10112 10117 10122 10128 10133 10137 10141 10146 10153 10159 10165 10170 10174 10179 10183 10187 10191 10195
9858 9860 9863 9865 9867 9871 9873 9876 9879 9882 9886 9891 9895 9898 9901 9904 9908 9913 9917 9921 9927 9932 9936 9938 9940 9942 9947 9952 9956 9959 9963 9968 9974 9978 9982 9988 9994 10000 10005 10011 10015 10020 10023 10025 10028 10034 10040 10044 10046 10051 10058 10064 10070 10077 10083 10089 10094 10100 10106 10111 10116 10121 10125 10129 10134 10139 10145 10151 10155 10159 10164 10168 10172 10175
9852 9854 9857 9859 9861 9863 9865 9868 9871 9875 9879 9884 9887 9890 9892 9895 9898 9901 9905 9910 9916 9919 9922 9925 9927 9931 9936 9941 9945 9948 9950 9955 9960 9966 9973 9980 9984 9987 9991 9996 10001 10004 10006 10009 10013 10017 10023 10028 10031 10034 10041 10047 10052 10059 10065 10070 10075 10080 10087 10093 10098 10103 10108 10112 10116 10120 10125 10131 10135 10139 10143 10147 10150 10154
9846 9848 9850 9852 9854 9856 9857 9860 9864 9868 9871 9875 9878 9880 9882 9885 9888 9891 9894 9899 9904 9907 9910 9914 9917 9921 9926 9930 9935 9937 9939 9943 9949 9955 9961 9965 9967 9971 9977 9981 9985 9988 9991 9996 9999 10002 10008 10014 10016 10018 10024 10030 10035 10041 10048 10053 10057 10062 10069 10075 10081 10087 10091 10096 10099 10102 10107 10111 10116 10119 10123 10126 10130 10135
9840 9842 9844 9846 9848 9850 9851 9854 9858 9860 9863 9866 9867 9869 9872 9876 9877 9879 9883 9889 9894 9897 9901 9905 9908 9912 9916 9920 9925 9927 9928 9932 9937 9942 9946 9949 9953 9959 9963 9966 9970 9975 9980 9984 9984 9986 9991 9996 9998 10002 10009 10015 10021 10027 10032 10038 10043 10048 10054 10059 10065 10071 10076 10079 10083 10087 10091 10095 10099 10102 10105 10108 10113 10118
9835 9837 9839 9841 9843 9845 9846 9849 9852 9853 9856 9858 9858 9859 9862 9864 9865 9869 9875 9882 9887 9891 9894 9897 9900 9903 9906 9910 9914 9917 9918 9922 9925 9928 9931 9936 9940 9944 9948 9952 9958 9963 9966 9967 9967 9970 9976 9980 9984 9992 9998 10003 10009 10015 10019 10023 10028 10032 10037 10043 10048 10052 10057 10061 10066 10070 10074 10077 10081 10085 10088 10092 10097 10101
9830 9832 9834 9836 9838 9839 9840 9843 9845 9847 9849 9850 9850 9851 9853 9855 9858 9865 9872 9876 9880 9884 9887 9889 9891 9893 9896 9899 9902 9905 9908 9910 9912 9914 9919 9924 9928 9931 9936 9942 9947 9950 9952 9952 9953 9958 9965 9969 9974 9980 9986 9990 9996 10001 10004 10007 10012 10015 10020 10025 10029 10033 10038 10043 10047 10052 10056 10059 10064 10068 10073 10076 10079 10083
9826 9828 9829 9830 9832 9833 9835 9837 9839 9841 9843 9843 9843 9845 9848 9852 9856 9861 9865 9868 9871 9874 9877 9880 9882 9884 9887 9890 9892 9895 9898 9901 9903 9906 9910 9915 9918 9922 9928 9933 9937 9939 9940 9939 9942 9948 9954 9958 9961 9966 9971 9976 9981 9985 9988 9991 9995 9999 10002 10006 10010 10014 10020 10026 10030 10035 10038 10042 10046 10051 10055 10059 10062 10066
9822 9823 9824 9825 9826 9828 9829 9832 9833 9835 9837 9838 9839 9841 9845 9848 9851 9854 9856 9859 9862 9865 9868 9872 9874 9877 9880 9883 9885 9887 9890 9893 9896 9899 9903 9907 9911 9914 9919 9923 9926 9927 9927 9927 9932 9938 9943 9947 9950 9953 9957 9961 9964 9968 9972 9975 9979 9983 9986 9990 9994 9998 10003 10008 10013 10017 10021 10024 10029 10033 10037 10042 10045 10048
9818 9819 9820 9821 9822 9823 9824 9826 9828 9829 9831 9833 9835 9837 9839 9842 9844 9846 9848 9851 9853 9856 9860 9863 9865 9868 9871 9873 9876 9878 9881 9884 9887 9890 9893 9897 9899 9903 9907 9910 9913 9914 9914 9917 9923 9927 9930 9935 9938 9940 9943 9946 9950 9954 9957 9960 9963 9967 9971 9975 9979 9983 9987 9991 9995 9999 10003 10007 10012 10016 10020 10024 10027 10029
9815 9816 9817 9817 9818 9819 9820 9821 9823 9825 9826 9828 9829 9831 9833 9835 9837 9840 9842 9845 9847 9849 9852 9854 9856 9859 9861 9864 9867 9869 9872 9875 9878 9880 9882 9885 9888 9891 9895 9898 9901 9903 9905 9908 9912 9915 9918 9922 9925 9927 9929 9933 9937 9940 9942 9945 9949 9953 9956 9961 9965 9968 9973 9977 9981 9984 9987 9990 9994 9999 10003 10007 10010 10012
9812 9813 9814 9814 9815 9815 9816 9817 9819 9820 9822 9823 9825 9826 9828 9830 9832 9835 9837 9839 9841 9843 9845 9848 9850 9852 9854 9857 9860 9863 9865 9867 9869 9870 9873 9876 9879 9882 9885 9889 9892 9894 9896 9899 9902 9904 9907 9909 9912 9915 9918 9922 9925 9927 9929 9932 9936 9940 9943 9948 9952 9957 9961 9964 9967 9970 9972 9975 9979 9982 9985 9989 9992 9994
9810 9810 9811 9811 9812 9812 9813 9814 9815 9816 9817 9819 9820 9821 9823 9825 9827 9829 9831 9833 9835 9837 9839 9841 9843 9845 9847 9850 9852 9855 9857 9859 9861 9863 9865 9867 9870 9873 9876 9879 9882 9884 9886 9889 9892 9894 9897 9900 9903 9905 9908 9911 9914 9917 9919 9922 9925 9927 9930 9934 9939 9944 9949 9952 9953 9956 9958 9962 9966 9968 9969 9971 9973 9975
9807 9808 9808 9809 9809 9810 9810 9811 9812 9813 9814 9815 9816 9817 9819 9820 9822 9824 9826 9828 9830 9832 9834 9835 9837 9839 9841 9843 9845 9847 9849 9852 9853 9855 9857 9859 9862 9865 9867 9869 9871 9873 9875 9878 9881 9884 9887 9889 9892 9895 9897 9900 9903 9906 9909 9911 9912 9914 9917 9923 9928 9932 9936 9938 9939 9941 9945 9949 9952 9953 9953 9954 9956 9958
9805 9805 9806 9806 9807 9807 9808 9809 9809 9810 9811 9812 9813 9814 9815 9816 9818 9819 9821 9823 9825 9827 9829 9830 9832 9834 9835 9837 9839 9841 9843 9844 9846 9848 9850 9852 9854 9857 9859 9861 9862 9864 9866 9868 9871 9873 9875 9878 9880 9883 9886 9889 9892 9894 9897 9898 9899 9902 9907 9912 9916 9919 9921 9923 9925 9929 9933 9936 9937 9937 9938 9939 9941 9943
9804 9804 9804 9804 9805 9805 9805 9806 9806 9807 9808 9809 9810 9811 9812 9813 9814 9816 9817 9819 9820 9822 9824 9825 9827 9828 9830 9831 9833 9834 9836 9838 9840 9842 9843 9845 9847 9849 9851 9853 9855 9856 9858 9859 9861 9864 9866 9868 9870 9873 9875 9878 9881 9883 9885 9886 9888 9892 9897 9902 9904 9905 9907 9911 9915 9917 9920 9922 9922 9923 9925 9926 9928 9929
9804 9803 9803 9803 9804 9804 9804 9804 9804 9805 9806 9806 9807 9808 9809 9810 9811 9812 9814 9815 9816 9818 9819 9821 9822 9823 9825 9826 9828 9829 9830 9832 9833 9835 9837 9838 9840 9842 9844 9846 9848 9849 9851 9852 9854 9856 9858 9860 9862 9864 9866 9868 9870 9873 9874 9876 9878 9883 9886 9889 9891 9892 9896 9901 9904 9905 9906 9907 9909 9911 9913 9914 9914 9916
9803 9803 9803 9803 9803 9803 9803 9803 9803 9804 9804 9804 9805 9806 9806 9807 9808 9809 9810 9811 9813 9814 9815 9816 9818 9819 9820 9822 9823 9824 9825 9827 9828 9830 9831 9832 9834 9835 9837 9839 9840 9842 9844 9845 9847 9848 9850 9852 9854 9856 9858 9860 9861 9863 9865 9867 9870 9873 9875 9877 9879 9882 9886 9890 9891 9891 9892 9895 9898 9899 9900 9901 9901 9903
9802 9802 9802 9802 9802 9802 9802 9802 9802 9802 9803 9803 9803 9804 9804 9805 9806 9806 9807 9808 9809 9810 9811 9812 9813 9814 9815 9817 9818 9819 9820 9821 9823 9824 9825 9827 9828 9829 9831 9832 9834 9835 9837 9838 9839 9841 9842 9844 9846 9847 9849 9851 9853 9855 9858 9860 9861 9862 9864 9867 9870 9873 9875 9878 9878 9878 9880 9884 9886 9887 9887 9888 9887 9888
9801 9801 9801 9801 9801 9801 9801 9801 9801 9801 9801 9802 9802 9802 9803 9803 9804 9804 9805 9805 9806 9807 9807 9808 9809 9810 9811 9812 9813 9814 9815 9816 9817 9819 9820 9821 9822 9823 9824 9826 9827 9828 9830 9831 9832 9833 9835 9836 9837 9839 9840 9842 9844 9846 9849 9849 9851 9853 9855 9857 9860 9862 9865 9866 9866 9867 9869 9872 9874 9874 9875 9875 9873 9873
9801 9801 9801 9801 9801 9801 9801 9800 9800 9800 9800 9800 9801 9801 9801 9801 9802 9802 9802 9803 9803 9804 9804 9805 9806 9806 9807 9808 9809 9810 9811 9811 9812 9813 9814 9815 9816 9817 9818 9819 9820 9821 9823 9824 9825 9826 9827 9828 9829 9830 9832 9833 9835 9837 9838 9839 9841 9843 9845 9847 9849 9851 9853 9854 9854 9856 9859 9860 9862 9863 9864 9862 9860 9859
9801 9801 9800 9800 9800 9800 9800 9800 9799 9799 9799 9799 9799 9799 9799 9799 9799 9800 9800 9800 9801 9801 9802 9802 9803 9803 9804 9804 9805 9806 9807 9807 9808 9809 9810 9810 9811 9812 9813 9813 9814 9815 9816 9817 9818 9819 9819 9820 9821 9822 9824 9825 9826 9827 9828 9829 9831 9834 9836 9837 9839 9839 9841 9843 9844 9846 9848 9850 9852 9853 9851 9849 9849 9850
9801 9801 9801 9800 9800 9800 9799 9799 9799 9798 9798 9798 9798 9797 9797 9797 9797 9798 9798 9798 9798 9799 9799 9799 9800 9800 9801 9801 9802 9802 9803 9803 9804 9804 9805 9805 9806 9807 9807 9808 9808 9809 9810 9810 9811 9812 9812 9813 9814 9815 9816 9816 9817 9818 9819 9820 9822 9824 9826 9827 9827 9828 9831 9833 9833 9835 9837 9839 9841 9841 9838 9838 9841 9843
9802 9801 9801 9801 9800 9800 9799 9799 9798 9798 9798 9797 9797 9797 9797 9796 9796 9796 9796 9796 9797 9797 9797 9797 9797 9798 9798 9798 9798 9799 9799 9799 9800 9800 9800 9801 9801 9801 9802 9802 9802 9803 9804 9804 9804 9804 9805 9805 9806 9808 9808 9808 9808 9809 9810 9811 9813 9815 9816 9816 9817 9819 9820 9822 9823 9825 9826 9827 9829 9829 9827 9828 9833 9835
9802 9801 9801 9800 9800 9799 9799 9798 9798 9798 9797 9797 9796 9796 9796 9796 9795 9795 9795 9795 9795 9795 9795 9795 9795 9795 9795 9795 9795 9796 9796 9795 9796 9796 9795 9796 9796 9796 9796 9796 9796 9797 9797 9797 9797 9797 9797 9798 9799 9799 9799 9800 9800 9801 9801 9802 9804 9806 9806 9807 9808 9809 9809 9812 9814 9815 9815 9814 9816 9818 9818 9820 9824 9824
9801 9801 9800 9800 9799 9799 9798 9798 9797 9797 9796 9796 9796 9795 9795 9794 9794 9794 9794 9793 9793 9793 9793 9793 9792 9792 9792 9792 9792 9792 9792 9791 9791 9791 9790 9790 9791 9790 9790 9790 9790 9791 9791 9791 9790 9791 9791 9791 9791 9791 9791 9792 9793 9793 9792 9793 9795 9796 9797 9798 9799 9799 9799 9801 9803 9803 9804 9804 9804 9806 9809 9811 9813 9812
9801 9800 9799 9799 9798 9798 9797 9797 9796 9796 9795 9795 9794 9794 9793 9793 9792 9792 9792 9791 9791 9791 9790 9790 9790 9789 9789 9788 9788 9787 9787 9787 9786 9786 9785 9785 9785 9784 9784 9784 9784 9784 9785 9785 9784 9783 9783 9782 9782 9783 9784 9785 9785 9784 9784 9785 9786 9786 9787 9789 9790 9790 9791 9792 9792 9792 9794 9794 9794 9797 9799 9800 9801 9801